Wind_Speed
23 22 22 21 20 20 19 18 17 17 18 18 18 18 18 17 16 15 15 14 12 11 11 11 10 10 10 10 10 10 10 10 10 10 10 9 9 9 9 9 9 9 8 8 9 9 9 9 10 11 12 13 13 13 13 13 12 11 11 10 9 9 9 9 10 10 8 6 6 7 7 7 7 6 5 5 4 4 3 2 2 4 5 6 7
25 25 24 23 23 22 21 20 19 18 18 18 18 18 18 17 17 16 15 14 13 12 11 11 11 11 11 11 10 10 10 11 10 10 10 10 10 9 9 9 9 9 8 8 9 9 9 9 9 10 11 12 12 13 13 13 13 13 12 11 10 9 9 10 10 10 9 7 6 7 7 7 7 6 6 5 4 4 4 2 3 4 5 7 7
27 26 25 25 24 24 23 22 21 20 20 20 19 19 18 18 17 16 15 14 13 12 12 12 12 12 12 11 11 11 11 11 11 11 11 11 10 10 10 10 10 9 9 9 9 9 9 9 9 10 10 10 10 11 12 12 12 12 12 11 10 10 10 10 10 10 10 8 6 6 7 7 6 5 5 4 3 4 4 2 3 4 6 7 7
27 26 26 25 24 24 24 24 24 23 23 22 21 20 19 18 18 17 16 16 15 14 14 14 13 13 13 12 12 12 12 11 11 11 11 11 11 11 11 11 11 10 10 10 10 10 10 9 10 10 10 9 9 10 10 10 11 11 10 10 10 10 10 10 9 9 10 9 7 6 7 7 5 4 4 3 3 3 3 3 4 5 7 7 7
27 26 25 24 24 23 23 24 24 24 24 23 22 21 20 19 19 18 18 17 16 16 16 15 15 14 13 13 12 12 12 12 12 12 13 13 12 12 11 11 11 11 11 11 11 11 11 10 10 11 10 9 9 9 9 9 9 9 9 8 9 9 9 9 9 8 8 8 7 6 6 5 4 2 3 3 2 2 3 4 6 8 9 9 8
27 26 26 25 24 24 24 24 24 24 24 24 23 22 21 21 20 20 20 19 19 18 18 17 17 16 15 14 14 14 14 14 14 14 14 14 13 12 12 11 11 11 12 12 12 12 12 12 12 12 12 10 9 9 9 9 9 9 8 7 7 7 7 7 7 7 7 7 6 4 4 4 2 2 3 3 2 3 5 7 9 10 10 10 9
27 27 27 26 25 25 24 25 25 25 25 25 24 23 22 22 22 21 21 20 20 20 20 19 19 18 17 16 16 15 15 16 16 16 16 15 14 13 12 11 11 11 12 13 13 13 13 13 13 13 13 12 11 11 11 11 10 9 8 7 7 7 7 6 6 6 6 6 5 4 4 4 3 3 3 3 4 6 8 11 13 12 12 12 11
28 28 27 26 26 25 25 25 25 26 26 26 25 24 24 24 23 23 23 22 22 21 21 21 20 20 20 19 18 18 18 18 17 17 17 16 16 15 13 12 11 11 12 12 14 14 15 15 15 15 15 15 14 14 13 13 12 11 10 8 8 8 7 7 7 7 7 6 6 5 5 6 5 4 4 5 7 9 12 14 16 15 14 14 13
29 28 27 26 25 25 25 26 26 26 26 26 26 26 26 25 25 24 24 24 24 23 23 23 23 22 22 22 21 20 20 19 19 18 17 17 17 17 16 14 13 12 12 12 14 15 15 15 16 16 16 17 17 16 16 16 15 14 12 11 10 10 10 9 9 9 9 9 9 8 8 9 8 8 8 9 11 13 15 17 17 17 16 15 15
30 29 27 25 25 26 26 26 27 27 27 26 26 27 27 26 26 26 26 26 25 25 25 25 25 25 25 25 24 23 22 21 20 19 19 19 18 18 17 16 15 14 13 13 13 14 14 15 16 16 17 18 18 18 18 18 18 17 16 15 14 14 13 13 13 12 12 12 12 12 12 13 13 13 13 15 15 16 18 18 18 17 17 16 17
29 28 27 25 26 27 26 26 27 27 28 28 28 28 27 27 27 27 27 27 27 27 27 27 27 27 27 27 27 26 25 23 22 22 21 20 20 19 18 18 17 16 16 15 14 14 14 14 14 15 16 17 18 18 19 18 19 19 19 19 18 17 17 17 17 16 16 16 16 17 17 17 18 18 18 18 18 18 18 18 17 18 17 17 17
28 28 28 28 29 28 27 27 28 28 28 29 29 29 29 28 28 28 28 28 28 28 28 28 28 28 28 28 28 28 27 25 25 24 23 22 22 21 20 19 19 18 18 17 16 15 14 14 14 15 15 16 16 17 17 18 18 18 19 20 20 20 20 20 20 20 19 18 19 20 20 20 21 22 22 20 19 19 19 18 17 17 17 17 17
31 31 30 30 31 31 29 29 29 29 29 30 30 30 30 30 29 29 29 29 30 30 30 30 30 29 29 29 29 29 27 26 27 26 24 24 24 23 23 22 21 20 20 19 19 18 17 16 16 16 16 16 15 15 15 16 16 17 18 19 19 19 19 20 20 21 20 20 20 21 22 21 21 23 23 21 20 19 18 18 18 17 17 17 17
34 34 34 33 33 33 32 31 30 30 30 30 30 30 31 31 31 31 31 32 32 33 33 32 31 31 30 30 30 29 27 27 28 28 26 26 25 25 24 24 23 23 22 22 21 20 20 19 19 19 19 18 17 16 16 16 16 16 17 17 18 18 18 18 19 19 19 19 19 20 21 21 21 21 22 21 20 19 18 17 18 18 17 16 17
38 38 37 36 34 34 34 33 30 29 30 29 28 27 27 28 29 29 30 31 33 34 36 36 35 33 33 32 31 28 27 28 29 29 28 27 26 25 25 25 25 25 24 24 24 23 22 22 22 22 22 21 20 19 18 18 18 18 18 18 18 19 19 19 19 18 18 18 19 19 20 21 21 21 21 21 20 19 18 17 18 19 17 16 17
41 40 38 36 35 34 33 32 30 28 28 26 25 24 24 24 25 26 27 28 30 32 35 38 38 38 37 36 34 31 30 31 31 31 30 29 28 27 26 26 26 26 26 26 26 26 25 25 24 25 25 24 22 22 22 21 21 21 21 21 20 21 21 22 21 20 19 19 19 19 21 22 22 23 23 22 21 20 18 18 19 20 18 16 18
40 38 38 38 37 35 34 32 29 28 26 24 23 23 23 23 23 24 25 26 27 29 32 35 39 40 40 39 37 35 34 34 34 33 33 32 30 29 28 28 28 28 28 28 29 29 29 28 28 27 26 25 25 26 25 24 24 24 24 24 23 23 24 25 24 22 22 21 20 20 21 22 23 24 24 24 24 22 20 20 21 21 19 18 19
39 37 37 36 36 35 33 31 29 28 26 24 23 23 22 22 23 23 23 22 23 24 26 30 35 38 40 40 38 37 36 36 36 36 35 35 33 32 31 31 30 30 30 30 31 32 32 31 30 29 28 27 28 29 28 27 27 26 26 26 26 25 26 27 26 25 24 24 23 23 23 23 23 24 25 26 26 24 22 22 23 23 22 21 21
35 35 34 32 32 31 30 29 29 28 26 26 26 25 23 23 23 23 22 21 21 20 20 21 25 30 35 39 39 37 36 36 37 37 37 36 35 34 34 34 33 33 34 34 34 35 35 33 32 31 30 30 30 30 30 29 29 29 28 28 28 28 28 28 27 28 27 27 27 26 25 25 25 25 26 26 27 26 25 24 25 25 24 23 23
29 31 31 31 30 29 28 28 28 27 26 26 26 26 25 25 24 24 23 23 24 23 19 16 16 20 26 32 36 37 37 38 38 38 38 38 36 35 34 34 34 35 36 36 36 37 36 35 34 33 33 32 31 31 31 31 31 31 30 30 29 29 29 29 29 30 30 29 29 29 28 28 28 28 28 28 28 28 27 26 26 26 25 24 25
27 27 27 27 27 26 26 26 27 27 27 27 26 26 26 27 27 27 26 25 26 25 23 20 18 18 20 25 31 34 34 35 34 34 35 35 35 34 33 33 33 34 35 36 36 36 36 35 35 35 35 34 33 33 33 32 32 33 33 32 32 31 31 31 31 31 31 31 31 31 31 31 31 31 31 31 31 30 30 29 29 29 28 27 27
32 29 27 26 25 24 25 25 27 28 29 29 29 28 28 29 29 29 29 28 27 26 25 24 23 21 21 23 25 25 25 26 26 25 26 28 30 31 32 32 32 33 34 35 36 36 35 34 35 36 36 36 36 36 35 34 34 35 35 36 35 34 33 32 32 32 32 32 33 33 33 33 34 34 34 34 34 33 32 32 32 32 31 31 29
34 32 30 27 26 25 26 27 29 29 30 30 31 30 30 30 31 31 31 30 30 29 28 27 27 26 26 26 26 25 23 24 24 23 23 24 26 28 30 31 32 33 33 34 35 36 35 34 35 36 37 38 38 38 37 37 37 37 37 38 39 38 36 34 33 33 34 35 35 34 35 35 36 36 36 36 36 34 34 34 35 34 34 33 32
33 32 30 28 27 27 28 30 31 31 31 32 32 32 32 32 32 32 32 32 31 30 30 29 30 30 29 29 29 29 29 29 28 27 26 26 26 26 27 28 29 30 30 31 32 33 34 34 35 37 38 39 39 39 38 38 39 39 40 40 41 40 39 38 38 38 37 37 37 36 36 37 38 39 39 38 37 37 36 36 36 36 36 35 34
31 31 30 29 29 30 31 32 33 33 33 33 33 33 33 33 32 32 32 32 32 32 31 31 31 32 32 32 32 33 33 33 32 31 30 29 29 28 28 28 28 28 28 29 29 30 31 32 33 34 36 37 38 39 39 40 40 41 41 41 41 41 41 42 42 41 40 39 39 38 38 39 39 40 41 41 41 41 40 38 38 38 38 36 35
31 31 31 32 32 33 33 34 35 35 35 35 34 34 34 33 33 32 32 32 32 32 32 32 33 33 34 34 35 35 36 36 35 35 34 33 32 32 31 31 31 31 31 30 31 31 31 32 32 33 34 36 37 38 39 40 41 41 41 41 41 41 41 42 42 41 41 40 40 39 40 40 39 40 41 41 42 43 43 42 42 42 41 39 38
34 34 35 36 36 36 36 36 37 37 37 37 36 36 35 35 34 34 34 34 34 34 34 34 35 35 36 36 37 37 37 37 37 37 37 36 35 34 34 34 34 34 34 34 34 34 34 34 35 35 36 37 38 38 39 39 40 39 40 40 40 40 40 40 41 41 41 40 40 40 40 40 40 40 40 41 41 42 43 44 43 43 43 42 40
37 37 38 38 39 39 39 39 39 39 39 39 39 38 38 38 37 37 36 36 35 35 36 36 37 37 37 38 38 38 38 38 38 38 37 37 37 37 36 37 37 37 38 38 38 38 38 38 38 38 38 39 40 40 40 40 41 41 40 41 41 40 40 40 39 40 40 39 39 39 39 40 39 39 38 39 39 40 41 42 42 43 44 44 42
39 39 39 40 41 41 41 42 42 42 42 42 42 41 41 40 40 39 38 38 38 38 38 38 38 39 39 39 39 40 39 39 39 39 38 39 39 38 39 39 39 40 40 41 41 41 41 41 41 42 42 42 42 43 43 43 43 43 43 43 43 42 42 42 41 40 40 40 40 40 40 40 40 39 39 38 38 38 39 40 41 42 43 43 43
43 43 42 43 43 43 44 44 44 44 45 44 44 44 44 43 43 42 42 41 41 41 41 41 41 41 41 41 41 42 41 41 41 41 41 40 40 40 40 40 41 41 41 42 42 43 43 44 44 44 45 45 45 46 46 46 46 46 46 46 46 45 45 45 44 44 44 43 43 43 43 43 43 43 42 41 40 39 40 40 40 40 41 42 43
47 47 46 47 47 48 48 48 48 48 48 48 47 48 48 47 47 47 47 47 47 46 46 46 45 45 45 45 44 44 44 44 44 44 44 43 43 43 42 42 42 42 42 43 43 44 44 45 45 45 46 46 46 47 47 47 48 48 48 48 49 48 48 48 48 48 48 48 48 48 48 48 48 47 47 46 45 44 44 43 43 43 42 43 43
50 50 50 50 51 52 52 52 53 53 53 53 53 53 53 53 53 52 52 52 52 51 51 51 50 50 50 49 49 49 48 48 47 47 47 47 46 46 46 45 45 45 45 45 46 46 46 46 47 47 47 48 48 48 48 49 49 49 49 50 50 50 50 51 51 51 52 52 52 53 53 52 52 52 52 51 50 50 49 48 48 48 47 46 46
53 53 53 53 54 54 55 55 56 57 57 57 57 57 58 58 58 57 57 56 56 55 54 54 53 53 53 53 52 52 52 52 51 51 50 50 50 49 49 49 49 49 49 49 49 49 49 49 49 49 50 50 50 50 50 51 51 51 51 52 52 52 52 53 53 54 54 54 55 55 55 56 56 56 56 56 55 55 54 54 53 53 53 52 51
55 55 56 57 57 57 57 57 58 58 59 59 59 59 59 60 59 59 58 58 57 56 55 55 54 54 54 54 54 54 54 54 54 54 54 53 53 53 53 53 53 52 52 52 52 52 52 52 53 53 53 53 53 53 53 53 53 54 54 54 54 55 55 55 56 56 56 57 57 57 58 58 58 58 58 59 59 59 58 58 58 58 57 57 57
56 56 56 58 59 60 60 60 60 60 61 61 60 60 60 60 60 60 60 60 59 58 57 56 56 55 55 55 55 55 55 56 56 56 56 56 56 56 56 56 56 56 56 55 55 55 55 55 55 55 56 56 56 56 56 56 56 56 57 57 57 58 58 58 58 58 59 59 59 60 60 60 60 61 61 61 61 61 62 62 62 62 62 62 61
55 56 57 57 58 59 60 60 60 60 60 61 61 61 61 62 62 62 61 61 60 59 58 57 57 56 56 56 56 56 56 57 57 57 57 57 57 58 58 58 58 58 58 58 58 57 57 57 57 57 58 58 58 58 59 59 59 59 59 60 60 61 61 61 61 61 61 62 62 62 62 62 63 63 63 63 63 64 64 64 65 65 65 65 65
51 53 54 56 57 59 60 60 61 61 60 60 59 59 59 59 59 59 59 59 59 59 58 57 56 56 56 56 56 56 57 57 58 58 58 58 58 58 58 59 59 59 59 59 59 60 60 60 60 60 60 61 61 61 61 61 61 61 61 61 62 62 63 63 64 64 64 64 64 64 64 65 65 65 66 66 66 66 66 66 67 67 68 68 68
53 52 52 53 53 54 55 56 57 59 60 60 60 59 58 57 57 57 57 57 58 58 58 57 57 56 56 56 56 57 57 58 58 58 58 58 59 59 59 60 60 60 60 61 61 62 62 63 63 63 63 64 64 65 65 65 65 65 65 64 64 64 64 65 65 65 66 66 66 67 67 67 68 68 68 68 68 69 69 69 69 69 69 70 70
57 56 56 55 54 53 52 51 51 52 54 56 57 58 58 58 58 58 58 58 58 58 58 58 58 58 58 57 57 58 59 59 59 59 59 60 60 60 61 61 62 62 62 63 63 64 64 65 65 65 66 66 67 67 68 68 68 68 69 69 69 68 68 68 68 68 68 68 68 69 69 70 70 71 71 71 71 72 72 72 72 72 72 72 73
58 58 58 58 58 57 57 56 54 54 54 54 55 55 56 56 57 57 58 58 59 59 60 60 60 60 59 59 60 61 61 61 61 61 61 62 62 62 62 63 63 63 64 64 65 65 66 66 67 67 68 68 69 69 69 70 70 70 71 71 71 72 72 72 73 72 72 72 72 72 72 72 73 73 73 74 74 74 75 75 75 75 76 76 76
58 58 58 58 59 59 59 59 58 58 57 57 57 58 58 58 58 58 58 58 59 59 60 61 61 61 61 61 61 62 63 63 63 63 63 63 64 64 64 64 64 65 65 65 66 66 67 67 67 68 69 69 70 70 71 71 72 72 72 73 73 74 74 75 75 76 76 76 76 76 76 76 77 77 77 77 77 77 77 78 78 78 79 79 79
58 57 57 56 56 57 57 58 58 58 57 58 58 59 59 60 60 60 60 60 60 60 61 61 61 61 61 61 62 63 63 63 63 63 63 64 64 64 65 65 65 65 66 66 66 67 67 67 68 68 69 69 70 70 71 71 72 72 73 73 74 75 75 76 77 77 77 78 78 78 79 79 79 80 80 80 80 80 81 81 81 81 81 82 82
57 57 57 56 55 55 55 55 55 56 56 56 57 57 58 58 59 59 59 60 60 61 61 61 61 61 61 61 61 62 62 62 62 63 63 63 63 63 64 64 64 64 64 64 64 64 64 65 65 66 67 67 67 68 68 69 70 70 71 72 72 73 74 74 75 76 76 77 77 78 78 79 79 80 80 81 81 82 82 83 83 83 84 84 85
59 58 57 57 56 55 55 55 55 55 56 56 56 56 56 56 56 56 57 57 57 58 58 58 59 59 59 59 59 59 59 59 59 59 59 59 59 59 59 59 59 59 59 59 59 59 60 60 61 61 62 63 64 65 65 66 67 68 68 69 70 70 71 72 72 73 73 74 75 76 76 77 78 79 79 80 81 82 82 83 84 84 85 85 86
60 60 59 59 58 58 57 56 56 56 56 56 56 56 56 56 55 55 55 55 55 55 55 55 55 56 56 56 56 56 55 55 54 54 54 54 54 54 55 55 55 56 56 57 57 58 58 58 59 59 60 61 62 63 63 64 65 66 67 68 69 69 70 70 71 71 71 72 72 73 74 74 75 76 78 79 80 81 82 83 84 85 86 86 87
58 59 58 58 59 59 59 58 57 57 57 57 57 57 57 57 57 56 56 56 56 55 55 54 54 54 54 54 54 54 54 54 54 54 54 54 54 55 55 56 56 57 57 57 58 58 58 59 59 60 60 61 62 62 63 64 65 65 66 67 68 68 69 69 70 70 70 71 71 72 72 73 74 75 77 78 79 80 81 82 83 84 85 86 87
52 53 54 55 56 57 57 58 58 58 58 58 58 58 58 58 58 58 57 57 57 56 56 55 55 55 55 55 55 55 55 55 55 55 56 56 56 56 56 57 57 57 58 59 59 60 60 61 62 62 63 63 64 64 65 65 66 66 67 68 68 69 69 70 71 71 72 72 73 73 74 75 76 77 78 79 80 81 82 83 84 84 85 86 87
52 49 48 48 51 53 54 55 55 56 56 57 58 59 59 59 58 58 58 58 57 57 57 57 56 56 56 55 55 55 55 55 56 56 56 56 57 57 57 58 58 59 60 60 61 62 63 63 64 64 65 65 66 66 67 67 68 68 69 70 70 71 72 73 73 74 74 75 75 76 76 77 77 78 79 80 81 82 83 83 84 85 85 86 86
61 58 54 51 50 50 51 51 52 52 53 53 54 55 56 57 57 57 57 57 58 58 58 58 58 58 57 57 57 57 57 57 57 57 58 58 58 58 59 59 60 61 61 62 63 64 65 66 66 67 67 68 69 69 69 70 70 71 71 72 72 73 74 74 75 75 75 76 76 76 77 77 77 78 79 80 80 81 81 81 82 83 83 83 84
62 63 63 62 59 57 55 53 52 52 52 51 51 52 52 53 53 54 55 55 56 56 57 57 58 58 58 58 58 58 59 59 59 60 60 61 61 61 62 63 63 64 65 65 66 67 68 68 69 70 70 71 71 71 72 72 72 72 73 73 73 74 74 74 74 75 75 75 75 75 75 75 76 76 76 77 77 77 77 78 79 80 81 81 82
58 59 61 62 62 63 62 61 61 60 59 59 58 57 57 57 57 57 58 58 58 58 58 59 59 60 60 60 61 61 62 62 62 63 64 64 65 65 66 66 67 68 68 69 69 70 70 71 71 71 71 72 72 72 72 72 72 72 73 73 73 73 73 73 73 73 73 73 73 73 73 73 73 73 73 73 74 75 76 77 78 79 80 81 81
Wind_Direction
213 212 214 214 215 215 215 216 216 216 217 216 215 215 214 215 216 220 222 222 219 219 223 228 231 231 231 234 238 241 243 244 246 246 247 248 250 253 256 257 259 261 260 262 264 264 265 265 265 265 264 262 262 261 260 259 260 260 261 263 264 266 268 269 271 275 274 269 268 269 267 267 268 265 261 258 246 229 209 213 283 320 334 345 360
214 213 213 213 214 214 215 216 218 219 220 220 220 220 220 220 220 223 228 231 231 231 232 236 240 242 241 240 241 242 244 246 247 248 247 247 249 250 250 251 253 257 259 261 264 266 269 271 270 270 269 268 266 265 264 264 264 264 263 264 265 265 267 269 270 273 276 274 268 270 269 267 269 266 258 250 232 208 197 221 286 319 330 337 347
215 215 215 214 214 214 215 215 217 218 221 222 223 223 224 225 225 227 230 233 236 237 240 245 248 251 251 249 248 247 248 247 246 247 246 246 248 250 250 250 251 253 256 258 261 267 271 273 273 275 276 276 274 272 271 270 270 270 269 268 268 266 265 267 269 272 277 277 271 268 269 270 272 268 256 242 212 191 198 237 292 318 325 329 334
219 218 218 217 217 218 218 219 219 219 221 223 223 224 226 227 228 230 232 235 237 238 242 247 251 255 256 255 254 252 250 248 245 243 243 244 246 250 252 254 256 257 258 259 260 264 269 272 274 276 279 278 275 274 273 273 273 274 274 273 273 272 271 271 273 276 279 282 280 270 268 275 280 268 246 228 202 196 223 272 304 317 320 323 325
223 223 223 222 222 222 223 224 225 224 225 225 225 226 228 229 230 232 234 237 239 240 243 246 248 251 253 255 255 254 251 248 244 240 240 241 245 250 256 260 264 266 266 265 262 260 262 266 268 273 278 277 273 270 268 267 268 269 273 276 278 281 284 284 286 287 288 292 293 282 272 281 286 248 226 216 207 227 269 294 307 315 316 316 318
225 225 226 226 225 226 226 228 229 229 230 230 230 229 230 232 234 235 237 239 241 243 244 245 245 245 247 249 251 252 252 249 245 242 241 243 247 251 258 264 269 272 273 270 266 261 258 258 260 267 273 275 274 271 267 266 265 268 270 272 275 281 286 290 294 296 297 298 301 296 283 285 274 214 212 219 233 265 288 299 306 310 309 308 312
225 225 226 225 226 227 228 229 231 232 233 233 233 232 232 233 235 237 238 240 242 244 245 245 245 246 246 248 250 251 252 251 250 247 246 248 250 252 257 262 267 272 274 273 270 265 260 255 254 258 264 268 269 268 268 267 265 266 266 265 267 272 277 280 283 288 292 292 293 291 280 276 265 228 222 236 258 279 293 300 305 307 304 302 307
225 225 226 226 226 227 229 230 231 233 234 236 236 236 235 234 235 236 237 239 240 242 244 245 246 247 248 250 251 253 255 256 256 255 255 255 255 256 256 257 259 263 268 270 270 268 264 259 255 254 258 261 263 264 267 268 268 267 265 264 265 269 271 272 273 276 280 280 280 277 272 272 274 269 263 270 281 289 296 300 302 304 303 301 303
224 225 226 228 229 229 230 232 233 233 234 236 237 238 238 238 237 237 238 239 240 241 242 245 246 248 249 250 251 253 256 260 263 265 265 264 262 261 260 258 257 257 259 264 268 269 268 266 263 259 258 259 261 263 265 268 271 272 271 267 265 266 268 268 269 272 274 275 276 276 276 276 279 281 281 284 288 291 295 297 298 300 301 300 302
224 224 224 228 233 234 232 233 235 236 235 235 236 238 239 240 240 241 241 241 242 242 243 244 246 248 250 252 253 253 255 259 263 265 268 269 268 267 266 265 263 261 259 260 264 268 271 272 272 269 266 264 264 264 265 266 269 270 271 269 265 264 264 263 263 264 266 270 273 275 276 278 280 283 283 285 288 290 292 294 296 297 299 299 301
223 223 223 226 232 235 234 234 236 237 238 238 237 238 239 239 240 241 242 243 244 245 246 247 248 249 252 254 256 257 257 258 259 260 262 265 268 268 268 268 267 266 265 263 262 265 268 271 274 274 273 271 269 269 268 268 268 269 270 269 267 265 264 263 263 263 264 266 271 274 276 278 281 283 283 284 287 289 290 292 292 294 295 294 296
224 223 224 227 231 233 235 236 237 238 239 240 239 239 239 240 240 241 242 243 244 245 247 248 249 250 251 254 256 258 259 259 259 259 260 262 264 266 267 267 267 267 267 266 265 264 263 265 267 268 269 270 271 271 271 270 268 267 267 268 268 267 267 266 267 268 268 269 271 275 277 279 282 283 284 285 286 287 287 288 288 288 288 289 290
225 226 226 229 234 237 238 239 239 238 239 241 242 242 241 241 241 242 244 245 246 247 247 248 249 250 251 252 253 255 257 259 259 260 260 261 262 264 266 267 268 268 268 267 267 266 264 262 262 262 262 263 265 266 268 270 269 267 266 266 268 269 270 269 270 271 273 274 274 275 277 278 279 281 283 285 285 285 285 285 285 283 282 283 285
226 229 229 231 235 239 239 241 241 239 239 241 244 244 244 243 242 243 245 247 249 249 249 249 249 249 250 251 252 254 255 256 258 259 259 259 261 263 265 266 267 268 268 268 268 267 266 265 263 263 262 260 261 261 262 265 266 267 267 268 270 272 272 272 272 272 274 275 275 275 276 278 278 279 282 285 286 286 285 285 285 282 281 282 282
225 227 230 234 237 238 238 240 242 240 239 241 244 245 244 243 244 246 248 249 250 250 250 249 248 249 250 250 251 254 255 255 256 256 256 257 259 261 263 264 265 267 268 268 268 267 267 266 266 266 265 263 263 262 262 262 264 265 266 267 269 272 273 273 274 275 275 275 275 275 276 278 279 279 281 283 285 286 286 286 284 282 283 284 282
225 227 231 235 236 236 236 237 237 236 236 238 241 242 242 242 244 247 251 253 253 252 250 249 248 247 248 250 251 253 255 256 256 256 255 255 256 258 260 263 264 265 266 267 268 268 267 266 265 265 266 267 267 266 264 263 264 265 266 267 268 269 271 272 273 274 275 274 274 275 275 277 278 279 280 280 280 281 282 282 281 280 281 280 279
223 228 233 235 235 233 233 232 231 231 232 235 238 240 241 242 244 246 250 254 257 257 255 253 251 249 248 250 252 253 254 256 256 256 256 256 256 257 259 261 264 265 266 267 268 269 268 267 266 265 267 269 270 269 267 266 265 266 267 268 269 269 270 270 271 273 273 272 272 272 273 274 275 276 278 279 278 278 278 277 276 276 277 276 275
224 229 232 233 232 231 229 228 227 228 230 234 236 239 241 243 244 245 248 252 258 260 259 256 254 253 251 250 250 252 254 255 255 256 257 258 258 258 259 260 261 263 264 265 266 266 267 268 268 268 268 269 269 269 269 269 269 268 268 269 269 268 269 271 273 274 274 273 272 271 270 271 272 273 275 276 278 279 279 278 277 277 277 276 274
228 230 229 228 227 227 227 228 228 230 233 237 239 242 244 245 246 247 249 253 256 259 259 256 254 254 252 250 250 251 253 254 255 256 257 258 258 259 260 260 258 258 259 259 260 262 264 266 269 270 269 268 268 269 270 271 271 271 270 270 269 269 268 268 270 272 272 272 271 271 271 272 272 272 274 275 276 278 278 278 279 279 279 279 278
230 228 227 227 227 229 231 232 232 232 235 239 241 243 245 246 248 251 254 255 255 255 257 259 259 256 253 250 249 250 252 253 254 255 256 257 258 259 260 259 258 257 257 257 258 260 262 263 264 266 268 269 269 269 270 271 272 272 271 270 269 268 268 268 268 268 269 270 271 272 273 274 274 274 274 275 276 277 278 278 277 276 277 277 277
236 234 232 232 233 234 233 233 234 233 233 237 240 243 244 246 249 252 254 254 255 254 253 251 252 253 250 247 246 247 249 252 254 255 256 257 258 257 258 258 259 259 259 258 259 260 261 261 260 260 263 266 269 269 269 270 272 273 273 272 270 268 268 268 268 268 270 271 272 273 273 274 275 275 275 275 275 276 278 279 277 276 276 275 274
244 243 240 235 234 236 236 236 237 236 235 237 240 243 246 247 249 250 250 250 251 251 250 248 247 248 249 250 251 250 250 250 252 254 255 256 255 254 255 257 259 261 261 261 260 260 261 261 260 259 259 261 264 266 267 269 271 273 274 274 274 273 271 271 272 273 273 272 272 273 274 275 275 276 276 275 275 276 277 278 278 279 279 278 277
244 244 242 236 232 234 237 239 239 240 239 239 241 243 244 246 247 248 249 250 249 249 248 249 249 251 252 254 255 254 253 253 255 256 257 256 256 255 257 259 261 262 263 262 261 260 261 261 261 260 260 261 263 264 266 268 270 271 273 274 275 275 275 274 274 274 274 273 272 272 274 275 276 276 276 276 277 278 278 278 279 279 279 278 279
240 241 242 239 236 237 239 241 242 242 241 241 241 242 242 243 244 245 246 248 250 249 248 248 249 252 253 253 253 254 255 256 257 258 258 259 258 258 259 261 263 264 265 264 262 261 260 260 260 260 261 262 262 263 265 267 268 269 270 270 271 272 272 272 273 273 274 274 274 274 273 274 275 276 276 277 277 278 278 278 278 279 277 277 278
239 241 242 241 241 241 241 242 243 243 243 242 242 242 242 242 243 244 245 246 249 251 251 250 251 252 253 253 253 254 255 256 257 257 258 258 259 258 258 259 260 262 264 265 264 262 261 260 260 260 261 261 260 261 263 265 267 267 268 268 268 268 268 268 270 273 274 274 273 273 273 273 273 273 274 275 275 276 276 276 277 278 278 278 278
242 244 245 245 245 245 244 244 244 244 244 243 242 241 242 242 242 243 243 245 247 249 251 252 253 253 254 254 254 254 255 256 257 257 257 257 257 258 258 259 260 261 262 263 263 262 261 260 260 260 260 261 261 262 263 265 266 266 267 267 267 267 266 266 267 269 270 271 271 271 271 272 272 272 271 272 273 273 274 274 275 276 278 278 278
248 249 249 250 250 249 248 247 247 246 245 244 243 242 242 242 243 243 243 244 246 247 249 250 251 252 253 254 255 255 256 256 257 258 259 259 259 259 260 260 261 261 261 261 261 260 260 260 260 260 260 261 262 263 264 265 266 266 267 267 268 268 267 266 266 267 269 271 270 270 270 272 273 273 273 272 272 272 272 273 274 275 276 277 277
250 250 250 251 251 251 251 250 249 248 247 246 246 245 244 244 245 245 246 247 247 248 250 251 252 253 254 255 255 256 257 258 259 260 261 262 263 262 262 262 261 261 261 260 260 260 259 259 260 260 261 261 262 263 264 266 267 267 268 269 269 269 269 269 268 269 270 271 272 272 272 272 274 275 276 276 275 273 272 271 272 273 274 275 276
249 249 249 250 250 251 251 251 250 249 249 248 248 248 247 247 247 248 249 250 250 251 252 253 254 255 256 257 258 259 259 260 261 261 261 262 263 263 263 263 262 262 262 262 262 262 261 261 261 261 261 262 262 263 264 265 266 267 268 269 269 270 271 271 271 271 271 271 272 272 273 274 275 276 277 278 278 277 275 274 273 273 274 274 275
249 248 248 249 250 250 250 250 250 250 250 250 250 250 251 251 251 252 253 254 255 256 256 256 257 257 258 259 260 261 261 261 261 261 261 260 260 260 260 261 261 261 262 262 263 263 264 264 264 264 264 263 263 263 263 264 264 265 266 267 268 269 270 271 272 272 272 272 272 272 272 273 274 275 275 275 276 276 276 275 275 275 275 275 276
251 250 249 248 249 249 250 251 252 252 252 252 252 253 254 255 255 256 257 258 259 259 260 261 261 261 261 261 260 260 261 261 261 261 261 260 259 259 258 258 258 258 259 259 260 261 261 262 263 263 264 265 265 265 265 265 265 265 265 266 266 267 268 269 270 271 272 272 272 272 272 272 273 274 274 274 274 274 275 275 275 275 275 275 276
251 251 250 250 249 249 250 251 252 253 253 254 254 255 256 257 258 258 259 260 261 261 262 262 263 263 263 262 262 261 260 260 260 260 260 260 259 259 258 258 258 258 258 258 258 259 259 259 260 261 262 263 264 265 266 266 266 267 267 267 267 268 268 268 269 269 269 270 271 271 272 272 272 273 273 273 273 273 273 273 274 274 274 274 274
251 252 252 252 252 251 251 251 252 253 254 254 255 256 257 257 258 259 260 260 261 261 262 263 263 263 263 262 262 262 261 260 259 259 259 259 259 259 259 259 259 259 260 260 260 260 260 260 260 261 262 263 264 265 266 267 267 268 268 269 269 269 269 269 269 269 269 269 270 270 270 271 272 272 272 272 272 272 272 272 272 272 273 273 273
251 252 253 254 254 253 253 254 254 254 255 256 256 256 257 257 257 258 259 260 260 261 262 262 262 262 262 262 261 261 261 260 260 259 259 259 259 260 260 261 261 262 262 263 263 263 263 263 264 264 264 265 265 266 266 267 268 268 269 269 270 270 270 270 270 270 270 270 270 270 270 270 270 271 272 272 272 272 273 272 272 272 272 272 272
249 250 251 253 253 253 253 255 256 256 256 257 257 257 258 258 258 258 259 259 260 261 261 261 261 261 261 261 261 260 260 260 260 259 259 259 259 260 261 261 262 263 264 265 265 266 267 267 268 268 268 268 268 268 269 269 269 269 270 270 270 271 271 271 271 270 271 271 271 271 271 271 271 271 271 271 271 272 272 272 272 272 272 272 272
251 251 252 253 253 252 253 255 256 256 256 257 258 258 259 259 260 260 260 260 260 260 260 259 259 259 259 260 260 260 259 260 260 260 260 260 260 261 261 262 262 263 264 265 266 267 268 269 270 270 271 271 271 271 271 271 271 271 271 271 271 272 272 272 272 272 272 271 271 271 272 272 272 272 272 271 271 271 271 271 271 272 272 272 272
255 255 255 255 254 254 254 254 254 254 255 256 257 257 258 259 259 260 260 261 261 260 260 259 258 258 258 258 259 259 259 259 259 260 260 261 261 262 263 263 264 265 266 266 267 268 269 269 270 271 271 272 272 272 272 272 272 272 272 272 272 272 272 272 273 273 273 273 273 273 273 273 273 273 273 273 273 272 272 272 271 271 271 271 271
257 256 256 256 255 254 254 255 255 255 255 256 256 256 256 257 258 258 259 259 260 260 261 260 260 259 259 259 259 260 260 260 259 260 260 261 262 262 263 264 265 266 267 267 268 268 269 270 270 271 271 272 272 273 273 273 274 274 274 274 273 273 273 272 272 273 273 273 274 274 274 274 274 274 274 274 274 274 273 273 273 272 272 271 271
257 256 256 255 255 255 255 256 257 259 259 258 258 258 258 258 258 259 259 259 260 260 261 261 261 261 261 261 261 262 262 262 262 261 261 262 262 262 263 264 264 265 266 267 267 268 269 269 270 270 270 271 271 272 273 273 273 274 274 274 275 275 275 274 274 274 274 274 274 274 274 274 274 274 274 274 274 274 274 274 274 273 273 273 272
256 256 256 256 256 256 257 258 259 261 262 262 262 262 262 261 261 261 261 261 261 261 262 262 262 262 262 263 263 263 263 264 264 264 264 264 264 264 264 264 265 265 266 266 267 268 268 269 269 269 270 270 270 271 271 271 272 272 273 273 274 274 274 275 275 275 275 275 275 275 275 275 274 274 274 274 274 274 274 274 274 274 273 273 273
255 255 256 257 257 258 259 259 260 261 261 262 263 263 263 263 264 264 263 263 263 263 263 263 263 264 264 264 264 265 265 265 265 265 265 265 265 265 266 266 266 266 266 267 267 267 268 268 269 269 269 270 270 270 271 271 271 271 272 272 273 273 273 274 274 274 274 275 275 275 276 276 276 276 276 276 275 275 275 274 274 274 274 274 273
255 255 255 256 257 258 259 259 259 260 260 260 260 260 261 262 263 263 264 264 264 264 264 264 264 265 265 265 265 266 266 266 266 266 266 266 267 267 267 267 267 267 267 267 267 267 267 268 268 268 269 269 270 270 270 271 271 271 271 272 272 272 273 273 273 274 274 274 275 275 275 276 276 276 276 276 276 276 276 276 275 275 275 274 274
255 255 255 255 255 256 257 257 257 257 258 258 258 259 259 260 261 261 262 262 263 263 263 263 264 264 264 264 265 265 266 266 267 267 267 267 268 268 268 268 268 268 268 269 269 269 269 269 269 269 269 270 270 270 270 271 271 272 272 272 272 272 273 273 273 273 274 274 275 275 275 276 276 277 277 277 277 277 277 277 277 276 276 276 275
256 255 255 255 255 255 256 256 256 256 256 257 257 258 258 259 260 260 261 261 262 262 262 262 263 263 263 262 262 263 263 264 265 265 266 266 266 267 267 268 268 268 269 269 270 270 271 271 271 271 272 272 272 272 273 273 273 273 273 274 274 274 274 274 274 274 274 274 275 275 276 276 277 277 278 278 278 278 278 278 278 278 277 277 277
257 256 256 256 255 255 255 256 256 256 256 256 257 257 258 259 259 259 260 260 261 261 262 262 262 262 262 262 261 261 261 262 262 263 263 264 265 266 267 268 269 269 270 270 271 271 272 272 273 273 273 273 274 274 274 274 275 275 275 275 275 275 275 275 275 275 276 276 276 276 277 277 278 278 278 279 279 279 279 279 279 279 279 279 278
256 256 256 255 255 255 255 255 255 256 256 256 256 257 257 258 258 259 259 259 260 260 260 261 261 261 262 262 262 262 262 263 263 263 264 265 266 267 268 269 270 271 271 272 272 273 273 274 274 274 274 275 275 275 275 275 275 275 275 275 275 275 275 275 276 276 276 277 277 277 278 278 279 279 279 279 279 279 279 279 279 279 279 279 279
253 254 255 255 255 255 255 255 255 255 255 255 255 256 256 257 257 257 258 258 259 259 259 260 260 261 261 262 262 263 263 264 264 265 266 266 267 268 269 269 270 271 272 273 273 274 275 275 275 276 276 276 276 276 276 276 276 275 275 275 275 275 275 276 276 277 277 278 278 278 279 279 279 279 279 279 279 279 279 279 279 279 279 279 279
251 252 253 254 255 255 255 255 255 255 254 254 255 255 256 256 256 257 257 258 258 258 259 259 259 260 260 261 261 262 263 264 264 265 266 267 267 268 269 270 270 271 272 273 274 275 275 276 276 276 277 277 277 277 277 277 276 276 276 276 276 276 276 277 277 277 278 278 279 279 279 279 280 280 280 280 280 280 280 280 280 280 280 280 279
253 253 253 255 256 256 256 256 255 255 254 254 255 255 256 257 257 257 258 258 258 258 259 259 259 260 260 261 261 262 263 263 264 265 266 267 268 269 270 271 272 272 273 274 274 275 275 276 276 276 276 277 277 277 277 276 276 277 277 277 277 277 277 277 278 278 279 279 279 280 280 280 280 280 280 280 281 281 282 282 282 282 281 281 281
255 255 255 255 256 256 256 256 256 256 256 257 257 257 257 258 258 259 260 260 260 260 260 260 260 261 261 262 263 264 265 265 266 267 268 269 270 271 272 273 273 274 274 275 275 275 275 275 275 275 275 276 276 276 276 276 276 276 276 276 277 277 277 278 278 279 279 279 280 280 280 280 280 280 280 281 281 282 282 282 282 282 282 282 282
256 256 256 256 256 256 257 257 257 258 259 260 261 261 261 261 262 263 264 264 264 264 264 264 264 264 265 266 266 267 268 269 269 270 271 271 272 272 273 274 274 275 275 275 275 275 274 274 274 275 275 275 275 275 275 276 276 276 276 277 277 278 278 279 279 279 280 280 280 280 280 280 280 281 281 282 282 282 282 283 283 283 283 283 283
Height
5947 5948 5950 5951 5952 5954 5955 5956 5958 5959 5960 5961 5962 5963 5964 5965 5966 5968 5969 5969 5970 5970 5971 5971 5972 5972 5973 5973 5974 5974 5975 5976 5976 5977 5977 5978 5978 5979 5979 5979 5979 5980 5980 5980 5980 5980 5980 5980 5980 5980 5980 5980 5980 5979 5979 5979 5978 5978 5978 5978 5977 5977 5977 5976 5976 5975 5975 5975 5975 5975 5974 5974 5974 5973 5973 5973 5973 5973 5973 5973 5973 5973 5972 5971 5971
5945 5947 5948 5950 5951 5952 5954 5955 5956 5957 5959 5960 5961 5962 5963 5964 5965 5966 5967 5968 5969 5969 5970 5971 5971 5972 5972 5972 5973 5973 5974 5975 5975 5976 5976 5977 5977 5978 5978 5978 5978 5979 5979 5979 5979 5979 5980 5980 5979 5979 5979 5979 5979 5979 5978 5978 5978 5977 5977 5977 5976 5976 5976 5976 5975 5975 5974 5974 5974 5974 5973 5973 5973 5972 5972 5972 5972 5972 5973 5973 5973 5972 5972 5971 5970
5943 5945 5947 5948 5950 5951 5952 5954 5955 5956 5957 5958 5959 5960 5962 5963 5964 5965 5966 5967 5968 5968 5969 5970 5971 5971 5971 5972 5972 5972 5973 5973 5974 5975 5975 5976 5976 5977 5977 5977 5978 5978 5978 5978 5978 5979 5979 5979 5979 5979 5979 5979 5978 5978 5978 5978 5977 5977 5977 5976 5976 5975 5975 5975 5974 5974 5974 5973 5973 5973 5972 5972 5972 5972 5972 5972 5972 5972 5972 5972 5972 5971 5971 5970 5969
5942 5944 5945 5947 5949 5950 5952 5953 5954 5955 5955 5956 5958 5959 5960 5961 5962 5963 5964 5965 5966 5967 5968 5969 5970 5970 5971 5971 5972 5972 5972 5972 5973 5973 5974 5975 5975 5976 5976 5977 5977 5977 5977 5977 5977 5978 5978 5978 5978 5978 5978 5978 5978 5977 5977 5977 5977 5976 5976 5976 5975 5975 5975 5974 5974 5973 5973 5973 5972 5972 5972 5972 5971 5971 5971 5971 5971 5971 5972 5971 5971 5971 5970 5969 5968
5942 5943 5945 5946 5948 5949 5951 5952 5953 5953 5954 5955 5956 5957 5959 5960 5961 5962 5963 5964 5965 5966 5966 5967 5968 5969 5969 5970 5970 5971 5971 5971 5972 5972 5972 5973 5974 5974 5975 5975 5976 5976 5976 5976 5976 5976 5977 5977 5977 5977 5977 5977 5977 5977 5976 5976 5976 5975 5975 5975 5975 5974 5974 5974 5973 5973 5973 5972 5972 5972 5971 5971 5971 5971 5971 5971 5971 5971 5971 5971 5970 5969 5969 5968 5968
5941 5942 5943 5945 5946 5948 5949 5950 5951 5952 5953 5954 5955 5956 5957 5958 5959 5960 5961 5962 5963 5964 5964 5965 5966 5967 5967 5968 5969 5969 5970 5970 5970 5971 5971 5971 5972 5973 5973 5974 5975 5975 5975 5975 5975 5975 5975 5976 5976 5976 5976 5976 5976 5976 5976 5975 5975 5975 5974 5974 5974 5974 5973 5973 5973 5972 5972 5972 5971 5971 5971 5971 5971 5971 5971 5971 5971 5970 5970 5969 5969 5968 5967 5967 5966
5938 5940 5941 5942 5944 5945 5947 5948 5949 5950 5951 5952 5953 5954 5955 5956 5957 5958 5959 5960 5961 5962 5963 5963 5964 5965 5965 5966 5967 5967 5968 5968 5969 5969 5970 5970 5971 5971 5972 5972 5973 5974 5974 5974 5974 5974 5974 5974 5974 5975 5975 5975 5976 5976 5975 5975 5975 5974 5974 5974 5974 5973 5973 5972 5972 5972 5971 5971 5971 5970 5970 5970 5970 5970 5970 5970 5970 5969 5969 5968 5967 5967 5966 5966 5965
5936 5938 5939 5941 5942 5943 5944 5945 5947 5948 5949 5950 5951 5952 5953 5954 5954 5955 5956 5958 5959 5960 5961 5961 5962 5963 5963 5964 5965 5965 5966 5966 5967 5968 5968 5969 5970 5970 5970 5971 5971 5972 5972 5972 5973 5973 5973 5973 5973 5973 5973 5974 5974 5975 5975 5975 5974 5974 5974 5974 5973 5973 5972 5972 5971 5971 5970 5970 5970 5970 5970 5970 5970 5970 5970 5969 5969 5969 5968 5967 5966 5965 5965 5965 5964
5933 5935 5937 5938 5940 5941 5942 5943 5944 5945 5946 5947 5949 5950 5951 5952 5952 5953 5954 5955 5956 5957 5958 5959 5960 5960 5961 5962 5962 5963 5964 5964 5965 5966 5967 5968 5968 5969 5969 5969 5969 5969 5969 5970 5970 5971 5971 5971 5971 5971 5972 5972 5972 5973 5973 5974 5974 5974 5974 5973 5973 5972 5972 5971 5970 5970 5969 5969 5969 5969 5969 5969 5969 5969 5969 5969 5968 5968 5967 5966 5965 5964 5964 5963 5963
5931 5932 5934 5936 5937 5938 5939 5941 5942 5943 5944 5945 5946 5947 5948 5949 5950 5951 5952 5953 5954 5955 5956 5956 5957 5958 5959 5960 5960 5961 5962 5962 5963 5964 5965 5966 5966 5967 5968 5968 5968 5967 5967 5967 5968 5969 5969 5970 5970 5970 5970 5970 5970 5971 5971 5972 5972 5972 5972 5972 5971 5971 5970 5969 5969 5968 5968 5968 5968 5967 5968 5967 5967 5967 5967 5967 5967 5966 5966 5965 5964 5963 5962 5961 5961
5928 5930 5931 5933 5934 5935 5936 5937 5939 5940 5941 5942 5943 5944 5945 5946 5948 5949 5950 5950 5951 5952 5953 5954 5955 5956 5957 5958 5959 5959 5960 5961 5961 5961 5962 5963 5964 5965 5965 5966 5966 5966 5966 5965 5966 5966 5967 5967 5968 5968 5968 5968 5969 5969 5969 5969 5970 5970 5970 5969 5969 5968 5968 5967 5967 5966 5966 5966 5966 5966 5966 5966 5965 5965 5965 5965 5965 5964 5964 5963 5963 5962 5961 5960 5959
5926 5927 5929 5930 5932 5933 5934 5935 5936 5937 5938 5939 5940 5941 5942 5943 5945 5946 5947 5948 5948 5949 5950 5951 5952 5953 5954 5955 5956 5956 5958 5959 5958 5958 5959 5960 5961 5961 5962 5963 5963 5964 5964 5964 5963 5964 5964 5965 5965 5965 5966 5966 5966 5967 5967 5967 5967 5967 5967 5967 5966 5966 5966 5965 5965 5964 5964 5965 5964 5964 5964 5964 5963 5962 5962 5962 5962 5962 5962 5961 5961 5960 5959 5959 5958
5922 5924 5925 5927 5929 5930 5931 5933 5934 5935 5936 5937 5938 5939 5940 5941 5942 5943 5944 5945 5946 5947 5947 5948 5949 5950 5951 5952 5953 5953 5955 5956 5955 5955 5956 5957 5958 5958 5959 5960 5960 5961 5961 5961 5961 5961 5962 5962 5962 5963 5963 5964 5964 5965 5965 5965 5965 5964 5964 5964 5964 5964 5964 5963 5963 5963 5963 5963 5962 5962 5961 5961 5961 5960 5959 5959 5960 5960 5959 5959 5958 5958 5958 5957 5957
5919 5921 5922 5924 5925 5926 5928 5929 5931 5932 5933 5934 5935 5936 5937 5938 5939 5940 5941 5942 5943 5944 5944 5945 5946 5947 5948 5948 5949 5951 5953 5953 5953 5953 5953 5953 5954 5955 5956 5956 5957 5957 5958 5958 5958 5959 5959 5959 5959 5960 5960 5961 5962 5962 5963 5963 5963 5962 5962 5962 5962 5962 5962 5961 5961 5961 5961 5960 5960 5959 5958 5958 5958 5957 5956 5956 5957 5957 5957 5957 5956 5955 5955 5955 5955
5915 5917 5918 5920 5921 5922 5924 5926 5927 5928 5930 5931 5932 5933 5934 5935 5936 5937 5938 5938 5939 5940 5941 5941 5943 5944 5944 5944 5945 5948 5950 5950 5950 5950 5950 5949 5950 5951 5952 5953 5953 5953 5954 5954 5955 5955 5956 5956 5956 5956 5957 5958 5959 5960 5960 5960 5960 5960 5960 5960 5960 5960 5960 5959 5959 5959 5959 5958 5958 5957 5956 5955 5955 5954 5954 5953 5954 5954 5954 5954 5953 5952 5953 5953 5952
5910 5912 5914 5915 5917 5919 5920 5922 5923 5925 5926 5928 5929 5930 5931 5931 5933 5933 5934 5935 5935 5936 5936 5937 5939 5940 5940 5940 5942 5944 5946 5946 5946 5947 5946 5946 5946 5947 5948 5949 5949 5950 5951 5951 5951 5952 5952 5952 5953 5953 5954 5955 5956 5957 5957 5957 5958 5958 5958 5958 5958 5958 5957 5957 5956 5956 5956 5956 5956 5955 5954 5953 5952 5952 5951 5950 5950 5950 5951 5951 5950 5949 5950 5950 5949
5906 5908 5909 5911 5913 5915 5917 5918 5920 5922 5923 5925 5926 5926 5927 5928 5929 5930 5931 5931 5932 5932 5932 5933 5934 5935 5936 5937 5939 5940 5941 5941 5942 5943 5943 5943 5943 5944 5945 5945 5946 5947 5948 5948 5948 5948 5948 5949 5949 5950 5951 5952 5953 5953 5953 5954 5954 5954 5955 5955 5955 5955 5955 5953 5953 5953 5953 5953 5953 5952 5951 5951 5950 5949 5948 5947 5947 5947 5947 5947 5946 5945 5946 5946 5945
5902 5903 5905 5907 5909 5911 5913 5915 5917 5918 5920 5921 5922 5923 5924 5925 5926 5927 5928 5928 5928 5928 5928 5928 5929 5930 5932 5933 5935 5936 5937 5937 5938 5938 5939 5939 5940 5940 5941 5942 5943 5943 5944 5945 5945 5944 5944 5945 5946 5947 5948 5949 5949 5948 5949 5950 5951 5951 5952 5952 5952 5952 5952 5951 5950 5950 5949 5949 5949 5949 5948 5947 5947 5946 5945 5944 5943 5943 5944 5944 5943 5942 5942 5942 5941
5898 5899 5901 5903 5905 5907 5909 5911 5913 5914 5916 5917 5919 5920 5921 5922 5923 5923 5924 5925 5925 5925 5924 5924 5925 5926 5927 5929 5930 5932 5933 5933 5934 5934 5934 5935 5935 5936 5937 5938 5939 5939 5940 5941 5941 5939 5940 5942 5943 5943 5944 5944 5944 5945 5945 5946 5946 5947 5948 5948 5948 5948 5948 5948 5948 5947 5947 5946 5946 5945 5945 5944 5944 5943 5943 5941 5940 5940 5940 5941 5940 5939 5939 5939 5938
5894 5896 5897 5899 5901 5903 5905 5907 5909 5911 5912 5914 5915 5916 5917 5918 5919 5920 5921 5921 5922 5922 5922 5921 5921 5922 5924 5926 5926 5927 5928 5929 5929 5930 5930 5931 5931 5932 5933 5933 5934 5935 5935 5936 5936 5935 5936 5938 5940 5940 5939 5940 5940 5941 5941 5941 5942 5942 5943 5943 5944 5944 5944 5944 5944 5944 5943 5943 5942 5942 5941 5941 5940 5940 5939 5939 5938 5937 5937 5937 5936 5936 5936 5936 5935
5891 5893 5894 5896 5897 5899 5901 5903 5905 5907 5909 5910 5911 5913 5914 5915 5916 5917 5918 5918 5918 5919 5919 5919 5919 5921 5922 5922 5922 5923 5924 5925 5925 5926 5926 5927 5927 5928 5929 5929 5929 5930 5930 5931 5931 5931 5932 5933 5935 5935 5936 5936 5936 5936 5936 5937 5937 5937 5938 5938 5939 5940 5940 5940 5940 5940 5940 5939 5938 5938 5937 5936 5936 5936 5935 5935 5934 5934 5933 5933 5932 5931 5931 5931 5931
5888 5889 5891 5892 5894 5895 5898 5900 5901 5903 5905 5906 5908 5909 5910 5911 5912 5913 5914 5915 5915 5916 5916 5917 5917 5918 5919 5918 5918 5919 5920 5921 5922 5922 5922 5923 5923 5924 5925 5925 5925 5926 5926 5926 5926 5926 5927 5929 5930 5931 5932 5932 5932 5932 5932 5932 5932 5933 5933 5933 5934 5934 5935 5936 5936 5936 5936 5935 5934 5933 5933 5932 5931 5931 5930 5930 5930 5930 5929 5929 5928 5928 5928 5927 5926
5885 5886 5887 5889 5891 5892 5894 5896 5898 5899 5901 5902 5904 5905 5906 5907 5908 5909 5910 5911 5911 5912 5913 5913 5914 5914 5915 5916 5916 5917 5917 5917 5918 5919 5919 5919 5920 5920 5921 5921 5921 5922 5922 5922 5922 5922 5923 5924 5925 5926 5927 5928 5928 5928 5928 5928 5928 5928 5929 5929 5929 5929 5930 5930 5930 5930 5930 5929 5929 5929 5928 5927 5926 5926 5925 5925 5925 5925 5926 5925 5924 5924 5924 5923 5921
5881 5882 5884 5885 5887 5889 5891 5893 5894 5895 5897 5898 5900 5901 5902 5903 5904 5905 5906 5907 5907 5908 5909 5910 5910 5910 5911 5912 5913 5913 5914 5914 5915 5916 5916 5916 5916 5917 5917 5917 5917 5918 5918 5918 5919 5919 5919 5920 5921 5922 5922 5923 5923 5923 5924 5924 5924 5924 5924 5924 5925 5925 5925 5924 5924 5924 5924 5924 5924 5925 5924 5923 5922 5920 5919 5919 5920 5920 5920 5920 5919 5919 5919 5918 5917
5877 5878 5880 5882 5883 5885 5887 5888 5890 5891 5892 5894 5895 5896 5898 5899 5900 5901 5902 5903 5903 5904 5904 5905 5906 5907 5907 5908 5909 5909 5910 5911 5912 5912 5913 5913 5913 5913 5914 5914 5914 5914 5914 5915 5915 5915 5916 5916 5917 5918 5918 5918 5918 5919 5919 5919 5919 5919 5919 5919 5920 5920 5920 5919 5918 5918 5919 5919 5919 5919 5919 5918 5917 5916 5914 5914 5914 5914 5914 5915 5915 5914 5913 5912 5912
5873 5874 5876 5878 5879 5881 5883 5884 5886 5887 5888 5889 5890 5891 5893 5894 5895 5897 5898 5899 5899 5900 5900 5901 5902 5902 5903 5904 5905 5905 5906 5907 5908 5908 5909 5909 5910 5910 5910 5910 5910 5910 5910 5911 5911 5911 5912 5912 5913 5913 5914 5914 5914 5914 5914 5914 5915 5915 5915 5915 5915 5915 5915 5915 5914 5913 5913 5913 5913 5914 5913 5912 5912 5911 5910 5909 5908 5907 5907 5909 5909 5908 5907 5907 5907
5868 5870 5872 5873 5875 5877 5878 5880 5881 5882 5883 5884 5885 5887 5888 5889 5890 5892 5893 5894 5895 5896 5897 5897 5898 5899 5899 5900 5901 5901 5902 5902 5903 5903 5904 5904 5905 5905 5905 5906 5906 5906 5906 5907 5907 5907 5908 5908 5909 5909 5909 5909 5910 5910 5910 5910 5910 5910 5910 5910 5910 5910 5910 5910 5909 5909 5908 5908 5908 5908 5908 5907 5906 5906 5905 5904 5903 5902 5901 5902 5902 5902 5902 5902 5902
5864 5865 5867 5869 5870 5871 5873 5874 5876 5877 5878 5879 5881 5882 5883 5884 5885 5886 5888 5889 5890 5891 5892 5893 5894 5894 5895 5896 5896 5896 5897 5897 5898 5898 5898 5899 5899 5900 5900 5900 5901 5901 5902 5902 5903 5903 5903 5904 5904 5904 5905 5905 5905 5905 5905 5905 5905 5905 5905 5904 5904 5905 5904 5904 5904 5904 5903 5903 5903 5903 5902 5902 5901 5901 5900 5899 5898 5897 5896 5896 5896 5896 5896 5896 5897
5858 5860 5862 5863 5864 5866 5867 5869 5870 5872 5873 5874 5875 5876 5877 5879 5880 5882 5883 5884 5885 5886 5887 5888 5889 5889 5890 5890 5891 5891 5892 5892 5892 5893 5893 5893 5894 5894 5895 5895 5896 5896 5897 5897 5898 5898 5898 5899 5899 5899 5899 5900 5900 5900 5900 5900 5900 5899 5899 5899 5899 5899 5899 5898 5898 5898 5898 5898 5898 5898 5897 5897 5896 5896 5895 5894 5893 5892 5891 5891 5891 5891 5891 5891 5892
5852 5854 5856 5857 5859 5860 5862 5863 5865 5866 5867 5869 5870 5871 5872 5873 5875 5876 5877 5878 5879 5880 5881 5882 5883 5884 5884 5885 5885 5885 5886 5886 5887 5887 5888 5888 5889 5889 5890 5891 5891 5891 5892 5892 5892 5893 5893 5893 5894 5894 5894 5894 5895 5895 5895 5895 5895 5894 5894 5894 5893 5893 5893 5892 5892 5892 5891 5891 5892 5892 5892 5891 5891 5890 5890 5890 5889 5888 5887 5886 5886 5886 5886 5885 5886
5845 5847 5849 5851 5853 5854 5856 5857 5859 5860 5861 5863 5864 5865 5866 5867 5868 5869 5871 5872 5873 5874 5875 5876 5877 5878 5878 5879 5879 5880 5880 5881 5881 5882 5882 5883 5884 5884 5885 5886 5886 5886 5887 5887 5887 5888 5888 5888 5889 5889 5888 5889 5889 5889 5889 5889 5889 5888 5888 5888 5887 5887 5887 5886 5886 5886 5885 5885 5885 5885 5885 5885 5885 5884 5884 5883 5883 5883 5882 5881 5880 5880 5880 5880 5880
5837 5839 5841 5843 5845 5847 5849 5850 5852 5853 5854 5856 5857 5858 5859 5860 5861 5863 5864 5864 5866 5867 5868 5869 5870 5871 5872 5873 5873 5874 5875 5875 5876 5876 5877 5878 5878 5879 5879 5880 5880 5881 5881 5882 5882 5882 5883 5883 5883 5883 5883 5883 5883 5883 5882 5882 5882 5882 5881 5881 5881 5881 5880 5880 5879 5879 5879 5879 5878 5878 5878 5878 5878 5877 5877 5877 5876 5876 5876 5875 5874 5874 5874 5874 5874
5830 5832 5833 5835 5837 5839 5841 5843 5844 5846 5847 5849 5850 5851 5852 5853 5855 5856 5857 5858 5859 5860 5861 5862 5863 5864 5865 5866 5867 5867 5868 5869 5870 5870 5871 5872 5872 5873 5873 5874 5874 5874 5875 5875 5876 5876 5876 5876 5877 5877 5877 5876 5876 5876 5876 5876 5875 5875 5874 5874 5874 5873 5873 5873 5873 5872 5872 5872 5872 5871 5871 5871 5870 5870 5870 5869 5869 5869 5868 5868 5867 5867 5867 5867 5867
5824 5825 5827 5828 5830 5831 5833 5835 5836 5838 5839 5841 5842 5844 5845 5846 5848 5849 5851 5851 5852 5853 5854 5855 5856 5857 5857 5858 5859 5860 5861 5862 5862 5863 5864 5865 5865 5866 5866 5866 5867 5867 5868 5868 5868 5868 5868 5869 5869 5869 5869 5869 5869 5869 5869 5868 5868 5868 5867 5867 5866 5866 5866 5866 5865 5865 5865 5864 5864 5864 5864 5863 5863 5862 5862 5861 5861 5861 5860 5860 5859 5859 5859 5859 5859
5817 5818 5820 5821 5822 5824 5825 5827 5828 5830 5831 5832 5834 5835 5837 5838 5840 5841 5843 5844 5845 5846 5847 5848 5848 5849 5850 5851 5852 5852 5853 5854 5854 5855 5856 5857 5858 5858 5859 5859 5860 5860 5860 5860 5860 5861 5860 5860 5860 5861 5861 5860 5860 5861 5860 5860 5860 5860 5860 5859 5859 5858 5858 5858 5858 5857 5857 5857 5856 5856 5856 5855 5855 5854 5854 5854 5853 5852 5852 5851 5851 5851 5851 5850 5851
5810 5811 5813 5814 5815 5817 5818 5819 5820 5821 5823 5824 5825 5827 5828 5829 5830 5832 5833 5835 5836 5837 5839 5840 5841 5842 5843 5844 5844 5845 5845 5846 5846 5847 5848 5849 5849 5850 5851 5851 5852 5852 5852 5852 5852 5852 5852 5852 5852 5852 5852 5852 5852 5852 5852 5852 5852 5852 5851 5851 5851 5850 5850 5849 5849 5849 5849 5848 5848 5848 5847 5846 5846 5846 5845 5845 5844 5844 5844 5843 5842 5842 5842 5841 5841
5803 5804 5805 5807 5808 5809 5811 5812 5813 5814 5815 5816 5817 5819 5820 5821 5822 5823 5824 5826 5827 5828 5829 5831 5833 5834 5835 5836 5837 5837 5837 5838 5838 5839 5840 5841 5841 5842 5842 5842 5843 5844 5843 5844 5844 5844 5844 5843 5843 5843 5843 5843 5842 5843 5843 5842 5842 5842 5843 5842 5842 5841 5841 5840 5840 5840 5839 5839 5838 5838 5838 5837 5837 5836 5836 5836 5835 5834 5834 5834 5834 5833 5833 5832 5832
5795 5797 5798 5799 5800 5802 5803 5804 5805 5806 5807 5809 5810 5811 5812 5813 5814 5815 5817 5817 5818 5819 5820 5822 5824 5825 5826 5828 5829 5828 5828 5829 5830 5831 5832 5832 5833 5833 5833 5834 5834 5834 5834 5834 5835 5835 5835 5835 5834 5834 5834 5833 5833 5833 5832 5832 5832 5832 5832 5832 5832 5831 5831 5831 5831 5830 5830 5829 5829 5828 5828 5827 5827 5826 5826 5826 5825 5825 5824 5824 5824 5823 5823 5823 5822
5787 5789 5790 5791 5793 5794 5795 5796 5798 5798 5799 5801 5802 5803 5805 5806 5807 5808 5809 5810 5811 5811 5812 5813 5815 5816 5817 5819 5820 5819 5818 5819 5820 5822 5823 5824 5824 5824 5824 5825 5825 5825 5826 5826 5826 5826 5826 5825 5825 5825 5825 5824 5824 5823 5823 5822 5822 5823 5822 5821 5821 5820 5820 5820 5820 5820 5820 5820 5819 5819 5818 5817 5817 5816 5816 5816 5815 5815 5814 5814 5813 5813 5812 5812 5812
5779 5781 5782 5783 5785 5786 5787 5789 5790 5791 5792 5792 5793 5795 5796 5797 5799 5800 5801 5802 5803 5803 5804 5805 5806 5807 5809 5811 5810 5809 5810 5810 5811 5812 5813 5814 5815 5815 5816 5816 5817 5817 5817 5817 5817 5817 5816 5816 5816 5816 5816 5815 5815 5815 5814 5813 5813 5813 5813 5812 5811 5811 5810 5809 5809 5809 5809 5809 5808 5808 5807 5806 5806 5806 5805 5805 5805 5804 5803 5803 5802 5802 5801 5801 5800
5771 5773 5774 5775 5776 5778 5779 5780 5781 5783 5783 5784 5785 5786 5787 5788 5790 5791 5792 5793 5794 5794 5795 5796 5797 5799 5801 5801 5800 5800 5800 5801 5803 5804 5804 5805 5805 5806 5806 5807 5807 5808 5808 5808 5808 5808 5808 5807 5807 5807 5806 5806 5806 5805 5805 5804 5804 5804 5803 5802 5801 5801 5800 5800 5799 5799 5799 5798 5798 5797 5796 5795 5795 5794 5794 5794 5793 5792 5792 5792 5791 5790 5790 5789 5788
5762 5764 5766 5768 5769 5769 5770 5772 5773 5774 5774 5775 5776 5777 5778 5779 5781 5782 5782 5783 5784 5785 5786 5787 5787 5789 5792 5792 5791 5790 5791 5792 5793 5794 5794 5795 5796 5796 5796 5797 5798 5799 5799 5799 5798 5798 5799 5798 5798 5797 5797 5797 5796 5796 5795 5794 5794 5794 5793 5792 5791 5791 5790 5790 5789 5789 5788 5788 5787 5787 5786 5785 5784 5784 5783 5782 5781 5780 5780 5779 5779 5778 5778 5777 5776
5753 5756 5758 5759 5761 5762 5762 5763 5764 5765 5766 5767 5767 5768 5770 5771 5772 5773 5773 5774 5775 5776 5777 5778 5778 5780 5782 5783 5782 5781 5782 5783 5784 5784 5785 5785 5786 5786 5787 5787 5788 5789 5789 5788 5788 5788 5789 5789 5788 5788 5788 5787 5787 5786 5785 5785 5784 5783 5783 5782 5781 5781 5780 5780 5779 5778 5778 5778 5777 5776 5775 5774 5773 5772 5772 5771 5770 5769 5768 5767 5766 5766 5765 5764 5764
5745 5747 5749 5750 5752 5753 5754 5755 5756 5757 5758 5758 5759 5760 5761 5763 5764 5764 5765 5765 5766 5767 5768 5769 5770 5771 5773 5774 5774 5774 5774 5774 5775 5776 5776 5776 5776 5777 5777 5778 5779 5779 5779 5779 5779 5779 5779 5779 5779 5778 5778 5777 5777 5776 5776 5775 5774 5773 5773 5772 5771 5771 5770 5769 5769 5768 5768 5767 5767 5766 5765 5764 5763 5762 5761 5759 5758 5757 5756 5755 5754 5753 5753 5752 5751
5735 5738 5740 5741 5742 5744 5745 5746 5747 5748 5749 5750 5751 5752 5753 5754 5755 5756 5757 5757 5758 5759 5760 5761 5761 5762 5763 5764 5765 5765 5766 5766 5767 5767 5768 5768 5768 5768 5769 5769 5770 5770 5770 5770 5770 5770 5770 5770 5770 5769 5769 5769 5768 5767 5767 5766 5765 5764 5763 5762 5761 5761 5760 5759 5758 5758 5757 5757 5756 5756 5755 5754 5753 5751 5750 5749 5747 5746 5745 5744 5743 5741 5740 5739 5738
5725 5728 5730 5731 5733 5734 5735 5736 5738 5739 5740 5741 5743 5744 5745 5746 5747 5748 5749 5749 5750 5751 5752 5753 5753 5754 5755 5756 5756 5757 5758 5758 5758 5759 5760 5760 5760 5761 5761 5761 5761 5761 5761 5761 5761 5761 5761 5761 5760 5760 5760 5759 5759 5758 5757 5757 5756 5755 5754 5753 5752 5752 5751 5750 5748 5748 5747 5747 5746 5746 5745 5744 5743 5741 5739 5738 5736 5735 5734 5733 5731 5730 5729 5727 5726
5717 5719 5721 5722 5723 5724 5725 5726 5728 5729 5731 5732 5734 5735 5736 5737 5739 5740 5741 5741 5742 5743 5744 5745 5745 5746 5747 5748 5748 5749 5749 5750 5750 5751 5751 5752 5752 5752 5752 5753 5753 5752 5752 5752 5751 5751 5751 5751 5750 5750 5750 5749 5748 5748 5747 5747 5746 5745 5744 5743 5743 5742 5742 5740 5739 5738 5737 5736 5736 5735 5734 5733 5732 5730 5728 5726 5725 5723 5722 5721 5719 5718 5717 5716 5714
5710 5712 5713 5714 5714 5715 5716 5717 5719 5720 5722 5723 5724 5726 5727 5728 5730 5731 5732 5732 5733 5734 5735 5736 5737 5737 5738 5739 5739 5740 5741 5741 5742 5742 5743 5743 5743 5744 5744 5744 5744 5744 5743 5743 5742 5742 5741 5741 5740 5740 5739 5738 5738 5737 5736 5736 5735 5734 5733 5732 5732 5731 5730 5729 5728 5727 5726 5725 5724 5723 5722 5721 5719 5717 5716 5714 5712 5710 5709 5708 5706 5705 5704 5703 5702
5702 5704 5705 5706 5706 5707 5708 5709 5710 5712 5713 5715 5716 5717 5718 5719 5720 5722 5722 5723 5724 5725 5726 5727 5728 5729 5729 5730 5730 5731 5732 5732 5733 5733 5734 5734 5734 5734 5734 5735 5735 5735 5734 5734 5733 5732 5732 5731 5730 5730 5729 5728 5727 5726 5725 5725 5724 5723 5722 5721 5720 5720 5719 5717 5716 5715 5714 5713 5713 5711 5710 5708 5707 5705 5703 5701 5699 5698 5696 5695 5693 5692 5691 5689 5689
5692 5694 5696 5698 5698 5699 5701 5702 5703 5703 5705 5706 5707 5708 5710 5711 5712 5713 5713 5714 5715 5716 5717 5718 5718 5719 5720 5721 5721 5722 5722 5723 5723 5724 5724 5724 5725 5725 5725 5725 5725 5724 5724 5724 5723 5723 5722 5721 5720 5719 5718 5717 5716 5716 5714 5713 5713 5712 5711 5709 5709 5708 5707 5706 5705 5704 5702 5701 5701 5699 5697 5696 5694 5692 5691 5689 5687 5685 5684 5682 5680 5679 5677 5676 5675
5683 5685 5687 5688 5690 5691 5692 5694 5694 5695 5696 5697 5698 5700 5701 5702 5703 5704 5705 5705 5706 5707 5708 5708 5709 5710 5710 5711 5711 5712 5712 5713 5713 5714 5714 5714 5714 5714 5714 5714 5714 5713 5713 5713 5712 5712 5711 5710 5709 5708 5707 5706 5705 5704 5703 5702 5701 5700 5699 5698 5697 5696 5695 5694 5693 5692 5690 5689 5688 5687 5685 5683 5682 5680 5679 5677 5675 5673 5672 5670 5668 5666 5664 5663 5661